Regional Weather Roundup
Issued by NWS

Home | Current Version | Previous Version | Text Only | Print | Product List | Glossary On
Versions: 1 2 3 4 5 6 7 8 9 10 11 12 13 14 15 16 17 18 19 20 21 22 23 24 25 26 27 28 29 30 31 32 33 34 35 36 37 38 39 40 41 42 43 44 45 46 47 48 49 50
000
ASUS43 KLMK 291910
RWRKY
KENTUCKY REGIONAL WEATHER ROUNDUP
NATIONAL WEATHER SERVICE LOUISVILLE KY
300 PM EDT WED MAR 29 2017

NOTE "FAIR" INDICATES FEW OR NO CLOUDS BELOW 12,000 FEET
WITH NO SIGNIFICANT WEATHER AND/OR OBSTRUCTIONS TO VISIBILITY.

KYZ001>023-026-027-061>063-070>075-292000-
WESTERN AND SOUTH CENTRAL KENTUCKY

CITY           SKY/WX    TMP DP  RH WIND       PRES   REMARKS
PADUCAH        CLOUDY    72  56  57 E10       29.94F
HENDERSON      CLOUDY    70  54  56 E9        30.01F
OWENSBORO      CLOUDY    69  53  56 SE6       30.04F
HOPKINSVILLE   MOSUNNY   72  58  62 E9        30.00F
BOWLING GREEN  SUNNY     73  54  51 E8        30.03F
GLASGOW        MOSUNNY   71  54  55 CALM      30.04F
$$

KYZ024-025-028>034-038-045-046-053-292000-
NORTH CENTRAL KENTUCKY

CITY           SKY/WX    TMP DP  RH WIND       PRES   REMARKS
LOUISVILLE/SDF PTSUNNY   64  47  53 E12       30.08F
LOUISVILLE/LOU MOSUNNY   62  48  60 E7G17     30.09F
FORT KNOX      SUNNY     64  51  64 NE12      30.06F
$$

KYZ035>037-039>044-047>052-055>060-089>105-292000-
NORTHEAST KENTUCKY

CITY           SKY/WX    TMP DP  RH WIND       PRES   REMARKS
LEXINGTON      CLOUDY    61  49  64 NE10      30.12F
COVINGTON      CLOUDY    54  44  69 E9        30.16F
FRANKFORT      CLOUDY    60  47  61 E7        30.11F
$$

KYZ054-064>069-076>088-106>120-292000-
SOUTHEAST KENTUCKY

CITY           SKY/WX    TMP DP  RH WIND       PRES   REMARKS
JACKSON        PTSUNNY   62  49  62 VRB3      30.12S
LONDON         MOSUNNY   69  50  50 NE5       30.08F
SOMERSET       MOSUNNY   68  52  56 N9        30.09F
MIDDLESBORO    SUNNY     73  50  44 S3        30.06S
MONTICELLO     CLEAR     70  55  59 N12G22    30.08F
$$




USA.gov is the U.S. government's official web portal to all federal, state and local government web resources and services.